EHI
11 9 7 7 9 8 7 5 5 5 4 4 4 4 4 4 2 1 0 0 0 0 0 1 2 2 3 3 3 3 3 3 2 1 0 0 0 0 0 0 0 0 0
15 13 11 10 10 9 8 8 7 5 4 4 4 4 4 3 2 1 0 0 0 0 0 1 1 1 2 3 3 3 3 2 1 0 0 0 0 0 0 0 0 0 0
16 14 14 15 14 11 10 11 9 6 5 5 6 7 6 5 3 2 1 0 0 0 1 2 1 1 1 2 3 2 1 1 0 0 0 1 1 1 1 0 0 0 0
14 13 14 16 15 12 11 12 10 7 6 7 9 10 8 6 4 3 2 0 0 0 2 3 3 2 2 3 3 2 1 0 0 0 1 1 2 2 1 0 0 0 0
15 13 13 15 13 10 9 9 8 6 6 7 9 10 9 6 4 3 2 1 1 1 2 3 3 4 4 5 5 4 2 1 1 1 1 2 3 2 1 0 0 0 0
17 14 12 11 10 9 8 7 7 5 4 5 7 8 8 6 4 3 3 2 2 2 3 4 4 4 6 6 6 5 4 3 3 2 2 3 3 2 1 0 0 0 0
14 12 10 9 9 9 9 9 8 6 3 3 4 5 5 4 3 3 3 3 3 3 4 5 5 5 5 6 6 4 4 5 5 4 3 3 3 3 2 2 1 1 1
11 10 10 10 10 10 10 10 8 6 5 5 4 3 3 3 3 3 3 2 2 3 3 4 5 5 5 5 5 4 4 6 6 5 5 4 3 3 3 3 3 2 2
10 10 11 11 10 9 8 8 7 7 8 8 8 5 3 3 4 4 4 4 3 3 3 4 5 6 6 5 5 5 5 6 6 6 5 4 3 3 3 3 3 3 3
9 10 11 10 9 7 6 7 7 8 9 10 10 9 6 5 6 6 7 8 6 5 4 4 5 6 6 6 6 6 6 6 6 6 6 4 3 3 2 2 3 3 3
6 8 8 8 8 7 7 8 8 9 9 10 11 10 8 8 8 8 8 8 8 7 6 6 6 6 6 6 6 6 6 6 6 6 6 5 4 3 2 2 2 3 3
2 3 4 5 7 8 8 8 9 9 9 9 10 10 10 10 9 7 7 6 6 6 6 6 6 6 6 6 6 6 6 6 6 6 6 6 5 4 3 1 1 2 3
0 0 1 3 5 6 7 8 8 8 7 8 8 9 9 9 8 7 6 5 5 5 4 5 4 4 4 5 6 6 6 6 6 6 6 6 6 5 2 0 0 1 2
0 0 1 2 3 4 5 6 7 7 6 6 7 7 7 8 7 6 5 6 6 4 4 4 3 3 3 4 4 4 4 3 4 4 5 4 4 3 1 0 1 1 2
0 0 0 1 1 3 4 5 6 6 6 5 5 5 5 6 5 4 4 5 5 5 4 3 3 3 3 2 2 2 2 1 1 1 2 1 1 1 0 0 1 2 3
0 0 0 0 1 2 3 4 4 4 4 4 4 4 4 4 4 3 3 3 4 4 4 4 4 3 2 1 1 1 1 0 0 0 0 0 0 0 0 0 1 2 2
0 0 0 0 0 1 2 3 3 3 3 3 3 3 3 3 3 2 2 2 3 4 4 5 4 3 2 1 0 0 0 0 0 0 0 0 0 0 0 0 1 2 2
0 0 0 0 0 0 1 1 2 3 3 3 3 2 1 1 2 2 3 4 4 4 4 4 4 3 3 2 1 0 0 0 0 0 0 0 0 0 0 0 1 2 3
0 0 0 0 0 0 0 0 1 2 2 2 1 1 0 0 1 2 3 3 4 4 3 3 3 3 3 3 2 0 0 0 0 0 0 0 0 0 0 0 1 2 2
0 0 0 0 0 0 0 0 0 1 1 1 0 0 0 0 0 1 1 2 3 3 3 3 2 1 1 2 1 0 0 0 0 0 0 0 0 0 0 0 0 1 1
0 0 0 0 0 0 0 0 0 0 0 0 0 0 0 0 0 0 0 1 2 2 1 1 1 1 0 0 0 0 0 0 0 0 0 0 0 0 0 0 0 0 0
0 0 0 0 0 0 0 0 0 0 0 0 0 0 0 0 0 0 0 0 2 2 1 0 0 0 0 0 0 0 0 0 0 0 0 0 0 0 0 0 0 0 0
0 0 0 0 0 0 0 0 0 0 0 0 0 0 0 0 0 0 0 1 2 3 2 1 0 0 0 0 1 1 0 0 0 0 0 0 0 0 0 0 0 0 0
0 0 0 0 0 0 0 0 0 0 0 0 0 0 0 0 0 0 0 2 3 3 3 2 1 1 0 0 1 1 0 0 0 0 0 0 0 0 0 0 0 0 0
0 0 0 0 0 0 0 0 0 0 0 0 0 0 0 0 0 0 0 1 2 2 2 2 2 1 0 0 1 1 0 0 0 1 0 0 0 0 0 0 0 0 0
0 0 0 0 0 0 0 0 0 0 0 0 0 0 0 0 0 0 0 0 1 1 1 1 1 1 0 0 0 0 0 0 0 1 0 0 0 0 0 1 1 1 0
Wind_Speed
2 3 4 4 4 3 3 4 4 3 3 2 2 2 1 0 0 0 0 1 1 1 1 1 1 1 1 1 2 2 2 1 1 2 1 2 1 1 0 0 0 1 1
3 3 4 4 4 4 4 4 4 4 3 2 2 2 2 1 1 1 1 1 1 1 1 1 1 1 1 1 1 2 1 1 1 2 1 1 3 2 1 0 1 1 1
5 4 4 4 4 4 4 4 4 4 3 2 3 3 2 1 1 0 0 1 1 1 1 1 1 1 1 1 1 2 2 1 0 1 2 2 2 2 2 1 1 1 1
3 3 4 3 3 3 3 3 3 3 2 3 4 4 3 2 2 1 1 0 0 1 1 1 1 1 1 1 1 2 1 2 1 0 0 1 2 1 1 2 1 1 1
4 4 3 3 2 2 3 3 3 3 2 3 3 3 2 1 1 0 0 0 0 0 1 1 1 1 1 1 1 2 2 2 2 1 1 1 1 1 1 1 2 2 2
3 3 3 3 3 3 2 2 3 2 2 3 3 3 3 2 2 0 0 0 1 1 1 1 1 1 1 1 1 1 2 2 2 1 1 2 2 2 2 2 2 2 2
4 4 4 3 3 3 2 2 3 2 2 2 2 2 2 2 2 1 1 0 0 1 1 1 1 1 1 1 1 1 1 1 1 2 1 2 2 2 2 2 1 1 1
4 4 4 4 3 3 3 3 2 2 1 2 1 1 1 1 1 1 1 1 1 2 1 1 1 1 1 1 1 1 1 1 1 2 1 1 1 1 2 2 2 1 1
4 4 3 3 3 3 2 3 3 2 1 1 1 1 1 1 1 1 1 1 1 1 1 1 1 1 1 1 1 1 1 1 1 2 2 1 1 1 1 1 2 2 2
3 3 3 2 2 2 1 2 2 2 1 1 1 1 0 0 1 0 1 1 1 1 0 1 1 1 1 1 1 1 1 1 2 2 2 1 1 1 1 2 2 2 2
3 3 2 2 2 2 2 2 2 2 2 1 1 1 0 1 1 0 1 1 1 1 1 1 1 1 1 1 1 2 2 2 2 1 2 2 1 1 1 1 1 1 2
3 3 3 3 2 2 2 2 1 1 1 1 2 1 1 1 1 1 2 1 1 1 1 1 1 1 1 1 2 2 2 2 2 2 2 2 2 2 1 1 2 2 2
3 3 3 3 2 2 2 1 1 1 1 2 2 1 1 0 1 1 1 1 1 1 1 1 1 2 2 2 2 2 2 2 3 2 2 3 2 2 2 2 2 2 2
4 3 3 2 2 2 1 1 1 1 1 2 2 1 0 1 1 1 1 1 1 1 2 1 1 2 2 2 2 2 2 2 2 2 3 3 3 3 3 2 2 2 2
3 3 3 2 2 1 1 1 1 1 1 1 1 0 1 1 1 1 2 2 2 2 2 1 1 1 1 2 1 1 2 2 2 2 2 3 3 4 3 2 3 3 2
4 3 2 2 2 1 1 1 1 0 1 1 1 1 1 1 1 2 2 2 2 2 2 2 1 2 2 2 2 1 1 2 2 2 2 3 2 3 3 4 4 4 4
3 3 3 2 2 1 1 1 1 1 1 1 1 1 1 1 2 2 2 2 2 2 2 2 1 2 3 3 3 2 1 1 2 2 2 2 2 1 1 2 2 3 4
3 2 2 1 1 1 1 1 1 2 1 1 1 1 1 1 2 2 2 3 2 2 2 2 2 2 3 4 4 3 1 2 2 2 3 3 3 2 2 2 2 2 3
4 3 2 2 1 1 2 2 2 1 1 0 1 2 1 1 2 2 3 3 2 2 2 2 2 2 3 4 4 3 1 2 2 3 2 3 3 4 2 2 2 3 3
3 3 2 2 2 1 2 3 1 1 1 2 2 2 2 1 2 3 3 2 2 3 2 2 2 3 4 4 4 2 1 2 3 2 2 3 3 4 3 2 2 3 3
3 3 3 2 1 1 2 2 1 1 2 2 1 1 2 2 2 2 2 2 2 2 2 3 3 3 3 4 4 3 2 2 3 2 2 2 4 5 5 4 4 5 4
3 3 2 1 1 1 2 1 1 2 1 1 1 2 2 2 2 2 2 2 1 2 2 3 3 3 3 3 4 4 3 3 2 3 3 3 5 5 5 4 5 5 3
3 2 3 2 0 1 2 1 2 2 1 1 1 2 3 2 2 1 2 2 1 1 2 2 3 4 3 3 5 5 4 4 3 3 5 5 5 4 3 4 4 3 2
2 2 2 2 1 1 1 2 2 1 0 1 2 2 2 3 2 2 1 2 2 2 2 2 3 3 3 3 3 3 3 3 2 3 3 4 4 2 2 2 2 2 2
2 2 3 3 3 2 2 2 1 0 0 1 2 2 2 2 2 2 2 2 3 3 3 3 3 3 4 5 5 3 3 3 3 2 1 1 1 1 1 1 1 1 1
2 2 2 3 3 2 3 2 1 1 1 1 2 2 2 2 2 3 3 4 4 5 6 5 4 4 5 7 6 6 5 5 3 1 1 2 2 2 3 2 2 2 2
Wind_Direction
188 158 157 148 136 134 139 139 143 144 141 134 133 125 130 77 23 358 59 98 96 94 103 96 76 93 124 138 125 115 104 92 94 84 26 355 353 346 331 311 314 285 253
151 151 146 139 145 152 149 145 145 149 165 166 148 138 132 131 109 9 17 41 99 109 131 120 135 134 123 112 122 113 115 100 99 113 100 2 345 331 346 347 237 262 247
166 154 141 144 142 150 159 159 151 153 152 143 111 91 77 62 67 6 294 280 185 142 133 139 138 113 119 146 156 138 139 152 100 113 141 148 228 309 334 341 307 281 256
136 143 146 143 149 155 141 136 137 142 149 145 142 148 159 178 212 220 224 311 350 157 159 146 140 131 136 148 175 143 149 145 155 147 101 150 156 158 325 334 332 311 274
144 146 146 147 132 114 118 124 120 120 126 131 140 146 155 181 186 117 74 343 316 235 195 175 160 156 175 187 166 148 158 160 166 168 153 138 109 133 162 275 315 328 304
150 139 121 105 96 92 96 103 108 107 118 127 126 138 152 150 128 135 235 292 307 312 303 229 189 190 196 205 197 175 167 175 171 171 167 164 170 186 179 214 253 281 298
154 144 139 130 115 113 117 105 109 97 102 118 127 147 157 154 160 182 207 239 290 276 272 240 223 219 210 205 190 170 182 180 181 194 207 205 206 177 171 182 220 255 294
159 159 163 155 147 141 142 129 127 117 118 137 157 154 150 154 184 200 196 211 235 253 274 245 228 227 215 207 180 179 210 163 195 218 212 211 223 192 181 179 176 229 295
158 155 143 137 137 148 161 158 151 137 139 160 163 168 185 181 197 207 204 222 241 255 290 284 267 251 233 204 173 192 219 189 202 222 219 213 227 199 202 195 185 185 233
153 134 127 134 146 158 146 134 139 150 133 126 131 128 192 220 213 190 241 248 271 291 296 287 277 287 273 240 196 215 218 201 229 215 199 206 221 202 183 200 200 198 204
156 144 136 130 118 103 109 105 106 98 102 128 125 108 61 37 52 282 269 268 284 288 266 255 255 261 267 255 223 230 217 218 243 234 201 225 212 204 201 190 190 206 203
135 139 131 116 112 112 105 101 99 106 128 139 118 109 78 41 39 307 293 286 283 287 273 259 255 259 260 252 237 245 241 227 236 239 223 244 226 217 216 195 203 213 209
119 115 120 128 137 132 123 119 120 134 118 102 98 83 69 33 319 299 300 302 293 296 301 291 270 268 260 258 251 243 248 239 238 234 230 243 226 225 221 210 213 215 208
130 120 126 142 145 146 143 124 88 86 94 93 103 107 3 287 293 309 326 325 322 318 311 304 289 276 264 265 260 249 248 256 256 249 246 245 229 229 221 210 210 205 194
137 140 144 153 143 130 123 109 100 72 81 80 76 71 345 353 353 346 336 338 339 321 305 310 316 310 282 283 275 256 246 245 257 266 273 263 255 250 234 224 206 198 194
161 155 148 135 133 145 144 107 81 67 96 91 359 357 22 17 355 338 337 339 336 329 326 314 312 320 315 335 328 291 266 259 260 268 275 275 261 275 258 247 222 196 197
163 164 162 157 160 152 133 137 152 93 86 69 15 355 1 349 320 325 337 322 313 319 325 324 316 303 314 327 319 312 270 262 262 265 277 287 289 287 279 270 252 225 221
164 166 154 147 145 138 123 108 88 85 83 43 359 338 345 314 313 326 312 300 295 290 284 293 295 291 309 320 317 313 289 269 270 263 259 267 284 279 276 265 267 260 249
164 161 156 150 140 132 120 105 89 86 77 342 299 289 282 287 302 306 295 287 291 288 281 286 278 278 294 307 308 309 290 279 281 281 274 264 269 276 268 251 264 278 282
132 129 117 108 110 110 108 110 108 100 249 262 267 279 280 277 282 283 284 287 283 278 282 286 279 272 282 297 301 296 272 282 285 285 280 264 269 274 255 242 249 264 276
128 121 116 118 145 145 117 118 133 250 261 275 292 307 307 287 284 291 294 293 294 303 305 296 296 290 288 295 294 289 255 259 272 279 284 282 273 269 261 247 239 247 256
121 126 124 120 101 124 127 123 260 276 301 333 337 326 322 315 323 315 310 312 311 312 309 311 312 308 300 295 292 282 271 260 251 266 275 279 279 270 265 260 256 254 251
144 145 143 135 79 129 144 179 272 302 332 355 332 319 322 323 330 314 308 318 319 303 299 300 303 309 313 305 293 286 281 273 254 268 275 281 286 284 275 268 265 255 237
162 154 142 149 219 251 241 238 270 287 37 306 302 305 311 315 323 313 293 289 284 282 286 284 287 297 307 308 306 298 294 290 274 278 290 294 287 278 279 286 270 246 236
173 164 171 196 231 245 260 274 270 199 247 293 299 302 296 295 303 301 277 267 258 245 246 256 260 272 287 286 287 290 292 291 283 292 300 300 302 296 290 283 274 267 253
173 175 198 218 239 245 259 272 260 203 201 281 296 295 298 294 286 290 298 274 261 271 256 250 248 254 257 280 291 294 290 290 291 235 260 267 268 268 271 274 277 264 249